Probability
1 1 3 4 4 9 18 22 20 18 12 7 8 9 6 2 1 0 0 0 0 0 0 0 0 0 0 0 0 0 0 0 0 0 0 0 0 0 0 0 0 0 0
3 2 3 4 5 10 16 21 22 19 15 11 9 8 6 4 1 0 0 0 0 0 0 0 0 0 0 0 0 0 0 0 0 0 0 0 0 0 0 0 0 0 0
8 5 3 5 7 11 15 21 24 22 18 14 10 6 5 3 2 0 0 0 0 0 1 1 1 0 0 0 0 0 0 0 0 0 0 0 0 0 0 0 0 0 0
12 7 5 8 11 14 18 22 25 24 19 14 7 3 1 1 1 0 0 0 0 0 1 2 2 1 1 0 0 0 0 0 0 0 0 0 0 0 0 0 0 0 0
16 11 10 16 20 23 25 26 25 23 18 10 4 1 0 0 0 0 0 1 1 1 1 2 3 3 2 1 1 1 0 0 0 0 0 0 0 0 0 0 0 0 0
21 18 20 26 31 32 33 30 26 20 15 8 3 1 1 1 1 0 1 2 3 3 2 3 4 5 4 3 3 2 1 1 0 0 0 0 0 0 0 0 0 0 0
27 26 30 37 40 39 38 33 26 19 15 11 6 4 3 3 2 1 3 4 5 4 4 4 4 4 5 4 4 3 3 2 1 0 0 0 0 0 0 0 0 0 0
32 31 35 42 45 44 39 33 25 19 18 16 13 10 8 5 3 3 4 6 6 6 6 6 6 4 4 4 4 3 4 3 1 0 0 0 0 0 0 0 0 0 0
34 35 38 43 46 45 39 32 24 18 17 18 17 15 12 10 7 6 6 6 6 6 7 9 8 6 5 6 5 5 5 3 1 0 0 0 0 0 0 0 0 0 0
32 34 37 40 43 44 40 32 23 18 17 16 14 13 12 12 11 10 9 8 6 5 7 10 10 8 8 10 9 7 5 3 2 1 0 0 0 0 0 0 0 0 0
27 29 33 37 40 41 39 32 25 21 17 14 11 10 9 9 9 11 12 12 10 7 7 10 11 9 9 10 10 7 5 4 4 3 1 1 1 0 0 0 0 0 0
24 25 29 34 36 37 35 31 26 22 17 12 10 8 7 6 6 8 10 12 11 8 9 10 11 11 9 8 8 5 4 5 5 4 2 2 2 1 1 1 1 0 0
25 24 24 26 28 28 27 26 23 18 13 11 9 8 6 4 4 5 5 5 6 6 8 9 10 11 10 9 7 4 3 5 5 2 2 3 3 2 1 2 2 2 1
20 19 19 18 17 18 18 18 16 12 10 9 9 7 6 5 3 2 1 1 1 2 4 6 7 8 8 8 7 4 2 3 3 2 2 4 6 5 3 2 3 3 3
10 11 13 14 13 11 11 12 11 9 8 8 8 8 7 5 3 1 0 0 0 0 1 2 3 4 5 6 6 5 3 2 2 2 3 5 8 9 6 4 3 3 3
5 6 8 10 8 6 6 8 9 8 7 7 7 7 6 4 3 1 0 0 0 0 0 0 1 1 2 3 4 4 3 2 1 2 3 5 6 8 8 6 4 3 3
4 3 4 4 3 2 3 6 9 8 6 5 5 5 3 3 3 2 1 0 0 0 0 0 0 0 0 1 1 2 2 1 1 1 2 3 4 5 7 7 5 4 4
3 2 2 2 1 0 2 5 8 7 5 3 3 2 1 1 3 3 2 1 0 0 0 0 0 0 0 0 0 0 0 0 0 0 1 1 2 3 4 4 5 5 4
2 2 2 2 1 0 2 4 6 6 4 2 1 0 0 1 2 2 2 1 0 0 0 0 0 0 0 0 0 0 0 0 0 0 0 0 0 1 1 2 5 6 5
1 1 2 1 1 1 2 3 2 2 1 1 0 0 0 0 1 1 1 0 0 0 0 0 0 0 0 0 0 0 0 0 0 0 0 0 0 0 0 1 5 6 5
0 0 1 1 1 1 2 1 0 0 0 0 0 0 0 0 0 0 0 0 0 0 0 0 0 0 0 0 0 0 0 0 0 0 0 0 0 0 0 1 3 3 3
1 1 0 0 0 1 1 0 0 0 0 0 0 0 0 0 0 0 0 0 0 0 0 0 0 1 0 0 0 0 0 0 0 0 0 0 0 0 0 0 1 1 1
2 2 1 1 0 0 0 0 0 0 0 0 0 0 0 0 0 0 0 0 0 0 0 0 0 0 0 0 0 0 0 0 0 0 0 0 0 0 0 0 0 0 0
3 3 3 2 1 1 0 0 0 0 0 0 0 0 0 0 0 0 0 0 0 0 0 0 0 1 1 1 1 0 0 0 0 0 0 0 0 0 0 0 0 0 0
3 3 4 4 3 2 1 0 0 0 0 0 0 0 0 0 0 0 0 0 0 0 0 0 0 1 2 2 2 1 0 0 0 0 0 0 0 0 0 0 0 0 0
3 3 4 4 4 3 2 1 0 1 1 1 0 0 0 0 0 0 0 0 0 0 0 0 0 1 2 3 3 2 1 0 0 0 0 0 0 0 0 0 0 0 0
Wind_Speed
6 8 14 15 15 15 16 17 18 18 18 18 18 18 17 16 16 15 14 13 12 12 12 12 12 12 12 12 13 14 14 14 14 14 14 14 14 14 13 13 12 10 13
11 10 15 15 16 16 16 17 18 17 17 17 17 17 16 16 15 13 13 12 11 11 12 12 11 11 12 12 12 12 13 13 12 13 13 13 13 13 13 12 11 8 12
12 10 13 15 16 16 17 17 17 17 17 17 17 16 16 15 14 13 12 11 11 11 11 11 11 11 11 11 11 11 11 11 11 11 10 7 9 12 12 12 12 11 11
11 8 10 15 15 16 17 16 17 17 17 16 16 16 15 14 13 12 12 12 11 10 10 10 10 10 10 10 10 10 10 10 10 10 5 5 6 11 12 12 12 11 11
10 8 10 15 15 16 16 16 16 16 16 15 15 14 14 13 12 11 11 11 10 10 10 10 9 9 9 9 8 8 8 9 9 8 4 4 4 10 12 12 12 11 11
10 7 10 14 14 14 14 15 15 15 15 14 14 13 13 12 11 10 10 10 9 9 9 9 8 8 8 7 7 6 6 7 7 5 4 4 4 10 12 12 12 11 11
9 7 8 13 13 13 13 13 13 13 13 12 12 11 11 10 9 9 9 9 8 8 8 7 7 6 6 6 5 5 5 6 5 4 5 5 6 10 12 12 12 11 11
9 7 8 12 12 12 12 11 11 11 10 10 9 9 8 8 7 7 7 7 7 6 6 6 5 5 4 4 3 3 3 4 5 4 4 5 7 11 12 12 11 11 11
8 7 6 6 8 10 10 10 9 9 8 8 8 7 7 7 7 7 6 6 6 5 5 5 4 4 3 3 2 2 2 3 3 2 4 4 8 11 13 12 12 11 11
7 7 6 5 5 5 5 8 9 8 7 7 7 7 7 6 6 6 5 5 5 5 5 4 4 3 3 2 2 1 1 3 3 3 2 4 9 12 13 13 12 12 12
6 5 5 5 5 4 4 6 6 7 6 6 4 5 4 2 2 2 3 4 5 4 4 4 3 3 2 1 1 1 1 1 2 2 2 6 9 11 12 13 13 13 13
5 4 4 5 4 4 4 3 3 3 3 3 2 2 2 2 1 1 1 2 3 4 4 4 3 2 1 0 1 1 0 2 2 2 3 7 9 11 12 12 13 13 13
4 4 4 4 4 3 3 3 2 2 2 2 2 2 2 1 1 1 1 1 1 1 1 1 0 0 1 1 1 0 1 2 2 2 2 6 7 9 10 11 12 12 12
5 5 4 4 3 3 3 2 2 2 1 1 1 2 1 1 1 0 0 1 1 1 0 0 0 0 1 1 1 2 2 2 2 1 2 5 6 8 10 11 11 12 12
5 5 4 4 4 3 3 2 2 2 2 1 1 1 1 1 0 0 0 1 1 0 0 0 0 0 1 1 1 2 2 2 2 2 2 5 5 6 7 8 9 10 11
4 5 4 4 3 3 2 2 2 2 2 1 1 1 0 1 0 0 0 1 1 1 0 0 0 0 1 1 1 1 1 2 2 2 2 2 3 4 6 7 9 10 11
4 5 5 4 4 4 3 2 2 2 1 1 1 2 2 1 0 0 0 1 1 1 0 0 0 0 0 0 1 1 1 1 1 2 2 1 2 3 4 6 7 7 9
5 5 5 4 5 4 3 3 2 2 2 2 2 2 3 2 2 1 1 1 1 1 1 0 0 0 0 0 0 1 1 1 1 1 1 1 1 1 3 4 4 6 7
5 5 5 5 5 4 4 3 3 3 4 3 3 4 4 4 3 2 1 2 2 1 1 0 0 0 0 0 0 0 1 1 1 1 1 1 1 1 1 1 2 4 5
6 6 5 5 4 4 3 3 3 4 4 4 4 4 4 3 4 2 2 3 2 1 1 1 0 0 0 0 1 1 2 2 1 1 1 1 1 1 1 0 1 2 3
7 7 6 5 4 3 2 2 2 2 2 3 4 5 5 5 4 3 3 3 2 2 1 1 0 1 0 1 1 1 1 2 3 2 2 2 2 1 1 1 1 0 1
6 6 6 6 5 4 2 1 2 2 2 2 3 4 5 5 4 3 4 3 3 2 2 2 1 0 1 1 1 1 0 1 2 3 3 2 3 2 2 3 2 2 2
6 6 5 6 6 5 4 2 2 2 2 3 4 4 5 6 6 5 5 3 3 3 2 2 1 1 1 1 1 1 2 2 0 2 3 4 4 3 3 4 5 4 4
5 5 6 6 6 6 5 4 3 3 2 2 2 3 5 6 6 6 5 5 4 3 2 2 2 1 1 1 1 1 1 1 2 1 2 3 5 5 5 5 5 5 5
4 5 5 6 7 7 6 5 5 5 3 2 3 5 5 5 6 7 6 5 5 3 3 3 3 2 1 1 1 0 1 1 1 2 2 2 3 5 5 5 5 5 5
5 5 5 6 7 7 7 7 6 6 5 5 5 4 4 3 4 7 6 5 5 4 4 3 3 2 2 1 0 0 1 1 1 2 3 2 3 3 5 5 5 5 5
Wind_Direction
135 141 138 136 129 122 116 112 110 109 110 112 115 118 120 122 124 126 126 125 122 117 111 107 105 106 107 110 114 118 121 122 125 128 130 127 125 122 120 117 115 115 116
136 140 139 136 131 125 120 117 114 113 113 114 115 117 119 121 123 124 125 124 122 118 115 112 111 112 113 115 119 122 125 127 130 133 133 130 128 126 123 122 121 123 121
130 135 137 136 132 127 123 120 119 118 118 118 119 120 121 123 124 125 125 123 122 120 118 117 117 117 118 120 124 127 128 129 130 128 124 123 131 132 130 129 129 127 126
126 128 135 135 132 128 125 124 123 123 123 123 124 125 126 127 127 127 128 126 124 122 120 119 119 119 121 124 127 131 134 132 128 122 110 125 137 140 137 137 136 134 132
120 122 136 134 132 130 129 128 128 128 128 128 129 130 130 130 129 130 130 129 126 124 123 122 121 122 124 128 132 136 140 142 137 127 125 130 135 149 147 147 144 142 138
118 123 135 132 130 130 131 131 132 132 133 134 135 135 135 135 134 134 134 132 130 128 126 124 125 126 127 131 137 141 145 150 140 139 145 151 154 159 156 154 151 149 147
121 121 129 129 131 132 133 133 135 137 137 138 139 140 140 139 139 140 139 136 134 133 131 128 128 129 130 134 138 141 145 150 143 156 166 170 176 172 166 163 160 158 156
120 118 120 127 131 132 133 133 135 137 139 140 142 142 141 142 144 145 145 143 141 141 140 138 137 136 136 136 139 144 150 156 149 163 175 182 189 182 175 172 169 167 164
109 111 112 120 128 134 134 133 133 133 135 136 139 142 146 149 151 154 152 153 153 153 155 156 158 157 152 153 161 167 176 169 147 170 186 188 199 192 183 178 176 174 171
101 102 101 104 108 114 126 136 137 135 134 137 144 148 151 155 160 165 161 169 173 174 176 176 175 175 172 179 202 206 174 146 165 183 189 199 205 199 190 184 182 181 177
96 87 96 99 102 105 114 132 134 135 134 135 143 152 144 123 130 157 178 188 192 194 198 197 193 194 192 201 218 232 179 157 189 202 203 213 207 205 199 192 188 187 186
110 91 78 89 92 95 106 95 93 104 107 107 101 108 98 93 89 131 240 222 220 215 218 217 210 208 199 168 260 264 210 205 210 218 216 219 212 208 202 197 195 195 194
115 101 79 78 85 87 86 92 79 75 82 88 91 94 94 87 62 51 34 330 319 281 279 285 265 178 190 181 188 231 230 233 232 235 231 222 217 216 208 202 202 202 203
83 75 70 69 73 74 83 91 91 85 79 74 74 81 86 79 57 359 316 305 317 326 308 307 185 261 247 226 215 230 235 237 240 241 248 236 220 217 213 208 208 210 210
78 69 63 61 64 63 73 83 88 85 81 72 61 77 100 131 187 273 301 290 279 278 241 221 212 220 249 250 236 227 232 240 244 244 264 257 234 218 216 211 214 220 220
68 64 66 67 70 75 66 71 74 72 65 59 53 25 153 170 189 226 270 286 290 290 256 200 233 243 266 268 278 272 259 247 249 247 248 275 263 234 218 211 218 225 227
53 52 53 64 57 71 72 65 66 67 71 51 29 18 24 38 56 198 290 297 303 319 338 92 145 144 214 232 284 301 287 266 263 265 258 257 262 246 222 212 215 218 223
60 54 45 50 47 50 61 65 56 54 61 50 36 33 24 23 26 33 15 339 343 5 37 121 159 146 225 211 251 297 312 317 312 300 296 288 271 253 234 224 226 232 230
61 65 55 48 41 34 44 57 64 60 50 41 39 34 19 18 26 37 31 7 11 21 26 338 77 175 190 189 163 16 359 340 329 330 339 333 329 297 261 236 225 241 238
51 60 63 55 35 31 45 59 58 56 45 38 38 35 25 20 26 34 34 16 20 25 14 33 69 99 125 140 85 45 22 0 6 2 349 352 345 323 298 212 222 251 244
49 50 46 51 36 34 38 42 45 45 35 31 31 32 30 25 23 31 25 20 21 20 1 13 83 105 123 122 110 75 47 40 31 17 13 19 11 352 6 32 27 360 270
46 43 40 36 35 36 35 53 76 85 66 46 27 29 27 25 23 32 30 22 20 24 20 16 30 126 197 179 157 160 232 354 26 27 26 25 15 23 37 39 39 41 30
50 38 36 28 31 33 37 58 67 64 54 35 21 14 15 23 27 28 25 22 18 21 9 349 337 250 232 233 198 185 191 213 113 34 34 33 33 36 38 41 45 45 50
47 41 40 36 38 31 35 56 68 75 64 37 23 16 16 24 25 27 25 21 19 16 5 344 338 307 260 247 236 208 184 162 172 130 51 39 42 40 39 41 44 47 54
58 50 40 41 43 37 43 53 64 67 66 52 42 36 27 22 22 22 23 21 15 10 7 0 352 348 322 270 250 172 139 124 159 153 134 79 53 38 40 41 44 47 54
61 55 51 53 46 40 47 52 62 71 67 56 42 32 23 16 17 17 19 20 17 11 6 1 360 4 360 338 320 286 198 177 170 144 136 120 86 49 41 41 42 41 50